Simultaneous Nadir Overpasses (SNOs) Predictions

Prediction of SNOs between GOES-16 and TERRA Satellite Orbit:

Table of predicted SNOs for the next 14.0 days since TLE Epoch: 4/11/2020
Index Date Time (GOES-16) GOES-16 Lat,Lon TERRA Lat,Lon Distance(km) Time Diff (sec)
1 04/11/2020 03:36:09 -0.01, -75.19 0.00, -76.17 108.48 80
2 04/13/2020 03:21:13 -0.02, -75.18 0.43, -73.16 229.86 80
3 04/13/2020 15:42:28 0.02, -75.20 0.68, -78.32 353.90 80
4 04/15/2020 15:30:15 0.02, -75.20 0.06, -75.35 17.61 80
5 04/17/2020 15:20:42 0.01, -75.20 -0.56, -72.38 319.62 80
6 04/18/2020 03:42:06 -0.01, -75.18 -0.53, -77.58 272.89 80
7 04/20/2020 03:27:13 -0.01, -75.19 0.09, -74.61 65.31 80
8 04/22/2020 03:15:00 -0.01, -75.20 0.72, -71.65 404.17 80
9 04/22/2020 15:36:16 0.01, -75.23 0.32, -76.81 178.94 80
10 04/24/2020 15:26:43 0.02, -75.25 -0.31, -73.85 160.57 80




NCC Satellite Simultaneous Nadir Overpasses (SNOs) Prediction Service
